Temp
13 13 13 13 12 12 12 12 12 12 12 12 12 12 12 12 11 11 11 12 12 12 12 12 12 13 13 13 13 13 13 12 12 12 12 12 12 12 12 12 12 11 11 11 11 11 11 11 10 10 10 11 11 11 10 10 10 10 10 10 10 10 10 10 10 10 10 9 9
13 13 13 13 12 12 12 12 12 12 12 12 12 12 12 12 11 11 12 12 12 12 12 12 12 12 12 13 13 13 12 12 12 12 12 12 12 11 11 11 11 11 11 11 11 11 11 11 11 11 11 11 11 11 10 10 10 10 10 10 10 10 10 10 10 10 10 10 10
13 13 13 13 12 12 12 12 12 12 12 12 12 12 12 12 11 11 12 12 12 12 12 12 12 12 12 12 12 12 12 12 12 12 11 11 11 11 11 11 11 11 12 11 11 11 11 11 11 11 11 11 11 10 10 10 10 10 10 10 10 9 9 9 10 10 10 10 10
13 13 13 12 12 12 12 12 12 12 12 12 12 12 12 11 11 11 12 12 12 12 12 12 12 12 12 12 12 12 12 12 12 11 11 11 11 11 11 11 11 11 11 11 11 11 11 11 11 11 11 10 10 10 10 10 10 10 10 10 10 10 10 10 10 10 10 10 9
13 13 13 13 12 12 12 12 12 12 12 12 12 12 11 11 11 11 11 12 12 12 12 11 12 12 12 12 12 12 12 11 11 11 11 11 11 11 11 11 11 11 11 11 10 10 10 10 10 10 10 10 10 10 10 10 10 10 10 10 10 10 10 10 10 10 9 9 9
13 13 13 13 12 12 12 12 12 12 12 12 12 12 12 12 11 11 11 11 11 11 11 11 12 12 12 12 12 11 11 11 11 11 11 11 11 11 11 11 11 11 11 10 10 10 10 10 10 10 10 10 10 10 10 10 10 10 10 10 10 10 10 10 9 9 9 9 9
13 13 13 12 12 12 12 12 12 12 12 12 12 12 12 12 12 12 12 11 11 11 12 12 12 12 12 12 11 11 11 11 11 11 11 11 11 11 11 11 11 11 11 11 11 10 10 10 10 10 10 10 10 10 10 10 9 9 9 9 10 10 9 9 9 9 9 9 9
13 13 13 12 12 12 12 12 12 12 12 12 12 12 12 12 12 12 11 11 11 12 12 12 12 12 11 11 11 11 11 11 11 11 11 11 11 11 11 11 11 11 11 11 11 10 10 10 10 10 10 10 10 10 10 9 9 9 9 9 9 9 9 9 9 9 9 9 9
13 13 13 12 12 12 12 12 12 12 12 12 12 12 12 12 12 12 11 11 12 12 12 12 12 11 11 11 11 11 11 11 11 11 11 11 11 11 11 10 10 10 11 10 10 10 10 10 10 10 10 10 10 10 10 9 9 9 9 9 9 9 9 9 9 9 9 8 8
13 13 12 12 12 12 12 12 12 12 12 12 12 12 12 12 12 11 11 11 12 12 12 12 11 11 11 11 11 11 11 11 11 11 11 11 11 11 11 10 10 10 10 10 10 10 10 10 10 10 10 10 10 10 10 9 9 9 9 9 9 9 9 9 9 9 9 9 9
13 13 12 12 12 12 12 12 12 12 12 12 12 12 12 11 11 11 11 12 12 12 12 11 11 11 11 11 11 11 11 11 11 11 11 11 11 11 11 10 10 10 10 10 10 10 10 10 10 10 10 10 10 10 10 10 10 10 10 10 10 10 10 10 9 9 9 9 9
13 12 12 12 12 12 12 12 12 12 12 12 12 11 11 11 11 11 11 11 11 11 11 11 11 11 11 11 11 11 11 11 11 11 11 11 11 11 11 11 10 10 10 10 10 10 10 10 10 10 10 10 10 10 10 10 10 10 10 10 10 10 10 10 10 10 9 9 9
12 12 12 12 12 12 12 12 12 12 12 11 11 11 11 11 11 11 11 11 11 11 11 11 11 11 11 11 11 10 10 10 11 11 11 10 10 10 11 11 11 11 11 10 10 10 10 10 10 10 10 10 10 10 10 10 10 10 10 10 10 10 10 10 10 9 9 9 9
12 12 12 12 12 12 12 12 12 11 11 11 11 11 11 11 11 11 11 11 11 11 11 11 11 11 11 10 10 10 10 10 10 10 10 10 10 10 10 11 11 11 11 10 10 10 10 10 10 10 10 10 11 11 11 11 10 10 10 10 10 10 10 10 9 9 9 9 9
12 12 12 12 12 12 12 12 11 11 11 11 11 11 11 11 11 11 11 11 11 11 11 11 11 11 10 10 10 10 10 10 10 10 10 10 10 10 10 10 10 10 10 10 10 10 10 10 10 10 10 10 10 10 10 10 10 10 10 10 10 10 9 9 9 9 9 9 9
12 12 12 12 12 12 11 11 11 11 11 11 11 11 11 11 11 11 11 11 11 11 11 11 11 11 10 10 10 10 10 10 10 10 10 10 10 9 9 9 10 10 10 10 10 10 10 10 10 10 10 10 10 10 10 10 9 9 9 9 9 9 9 9 9 9 9 9 9
12 12 12 12 12 12 11 11 11 11 11 11 11 11 11 11 11 11 11 11 11 11 11 11 11 10 10 10 10 10 10 10 10 10 10 10 10 9 9 10 10 10 10 10 10 10 10 10 10 10 10 10 10 10 9 9 9 9 9 9 9 9 9 9 9 9 9 9 9
12 12 12 12 11 11 11 11 11 11 11 11 11 11 11 11 11 11 11 11 11 11 11 11 10 10 10 10 10 10 10 10 10 10 10 10 10 10 10 10 10 10 10 10 10 10 10 10 10 10 10 10 9 9 9 9 9 9 9 9 8 8 8 8 8 8 8 8 8
12 12 12 11 11 11 11 11 11 11 11 11 11 11 11 11 11 11 11 11 11 11 11 11 10 10 10 10 10 10 10 10 10 10 10 10 10 10 10 10 10 10 10 9 9 9 9 9 9 10 9 9 9 9 9 9 9 9 8 8 8 8 8 8 8 8 8 8 8
12 12 11 11 11 11 11 11 11 11 11 11 10 10 11 11 11 11 11 11 11 11 10 10 10 10 10 10 10 10 10 10 10 10 10 10 10 10 10 10 10 10 9 9 9 9 9 9 9 9 9 9 9 9 9 9 9 9 8 8 8 8 8 8 8 8 8 8 8
12 11 11 11 11 11 11 11 11 11 11 10 10 10 11 11 11 10 10 10 10 10 10 10 10 10 10 10 10 10 10 10 10 10 10 10 10 10 10 10 10 10 9 9 9 9 9 9 9 9 9 9 9 9 9 9 8 8 8 8 8 8 8 7 7 7 7 7 7
11 11 11 11 11 11 11 11 11 11 10 10 10 10 11 10 10 10 10 10 10 10 10 10 10 10 10 10 10 10 10 10 10 10 10 10 10 10 10 10 10 10 9 9 9 9 9 9 9 9 9 9 9 9 8 8 8 8 8 8 8 8 7 7 7 7 7 7 7
11 11 11 11 11 11 11 11 11 10 10 10 10 10 10 10 10 10 10 10 10 10 10 10 9 9 10 10 10 10 10 10 10 10 10 10 10 10 10 10 9 9 9 9 9 9 9 9 9 9 9 9 8 8 8 8 8 8 8 7 7 7 7 7 7 7 7 7 7
11 11 11 11 11 11 11 11 10 10 10 10 10 10 10 10 10 10 10 10 10 10 10 9 9 9 10 10 10 10 10 10 10 10 10 9 9 9 9 9 9 9 9 9 9 9 9 9 9 9 8 8 8 8 7 7 7 7 7 7 7 7 7 7 7 7 7 7 7
11 11 11 10 10 11 10 10 10 10 10 10 10 10 10 10 10 10 10 9 9 9 9 10 10 10 10 9 9 10 10 10 10 10 10 9 9 9 9 9 9 9 9 9 8 8 8 8 8 8 8 8 7 7 7 7 7 7 7 7 7 7 7 7 7 7 7 7 7
11 11 11 10 10 10 10 10 10 10 10 10 10 10 10 10 9 9 9 9 9 9 9 10 10 9 9 9 9 10 10 10 10 10 9 9 9 9 9 9 9 9 9 8 8 8 8 7 7 7 7 7 7 7 7 7 7 7 6 6 6 6 6 6 6 6 6 6 6
11 10 10 10 10 10 10 10 10 10 10 10 10 10 10 9 9 9 9 9 9 9 9 9 9 9 9 9 9 10 10 9 9 9 9 9 9 9 9 9 9 9 8 8 8 7 7 7 7 7 7 7 7 7 7 6 6 6 6 6 6 6 6 6 6 6 6 6 6
10 10 10 10 10 10 10 10 10 10 10 10 10 10 9 9 9 9 9 9 9 9 9 9 9 9 9 9 9 9 9 9 9 9 9 9 9 9 9 9 9 8 8 7 7 6 6 6 6 6 7 7 7 6 6 6 6 6 6 6 6 6 6 6 6 6 6 5 5
11 10 10 10 10 10 10 10 10 10 10 10 10 10 9 9 9 9 9 9 9 9 9 9 9 9 9 9 9 9 9 9 9 9 9 9 9 9 8 8 8 8 7 7 6 6 6 6 7 7 7 6 6 6 6 6 6 6 6 6 6 6 6 6 6 5 5 5 5
11 11 11 11 10 10 10 10 10 10 10 10 10 9 9 9 9 9 9 9 9 9 9 9 9 9 9 9 9 9 9 9 9 9 9 9 8 8 8 8 8 8 7 7 7 7 7 7 7 6 6 6 6 5 5 5 5 5 6 6 6 6 6 5 5 5 5 4 4
12 11 11 11 11 11 11 11 10 10 10 10 10 9 9 9 9 9 9 9 9 9 9 9 9 9 9 9 9 8 8 9 8 8 8 8 8 8 8 8 8 7 7 7 7 7 7 6 6 6 6 5 5 5 5 5 5 5 5 5 5 5 5 5 5 4 4 4 4
12 12 12 12 11 11 11 11 10 10 10 10 10 10 10 9 9 9 9 9 9 9 9 9 9 9 9 9 8 8 8 8 8 8 8 8 8 8 8 7 7 7 6 6 6 6 6 6 6 6 5 5 5 5 5 5 5 5 5 5 5 5 5 5 4 4 4 4 4
12 12 12 11 11 11 11 10 10 10 10 10 10 10 10 10 10 9 9 9 9 9 9 9 9 9 9 9 8 8 8 8 8 8 8 8 8 8 7 7 7 6 6 6 6 6 6 6 6 5 5 5 5 5 5 5 5 5 5 5 5 5 4 4 4 4 4 4 3
12 12 11 11 11 11 11 11 10 10 10 10 10 10 10 10 10 10 9 9 9 9 9 9 9 9 9 9 9 8 8 8 9 8 8 8 8 7 7 7 6 6 6 6 5 5 5 5 5 5 4 4 5 5 5 5 5 5 5 5 4 4 4 4 4 4 4 3 3
12 12 11 11 11 11 11 11 11 11 11 11 10 10 10 10 10 10 10 10 10 9 9 9 9 9 9 9 9 9 9 9 8 8 8 8 7 7 7 7 6 6 6 6 5 5 5 4 4 4 4 5 5 5 5 5 5 5 5 4 4 4 4 4 4 3 3 3 3
12 12 11 11 11 11 11 11 11 11 11 11 11 10 10 10 10 10 10 10 10 10 9 9 9 9 9 9 9 8 8 8 8 8 7 7 7 7 6 6 6 6 5 5 5 5 4 4 4 4 5 5 5 5 5 5 5 4 4 4 4 4 4 3 3 3 3 3 2
12 11 11 11 11 11 11 11 11 11 11 11 11 10 10 10 10 10 10 10 10 9 9 9 9 9 9 9 9 8 8 8 8 7 7 7 6 6 6 6 6 5 5 5 5 4 4 4 4 5 5 5 5 5 5 5 5 4 4 4 4 4 3 3 3 3 3 2 2
11 11 11 11 11 11 11 11 11 11 11 11 11 11 10 10 10 10 10 10 9 9 9 9 9 9 9 9 8 8 8 7 7 7 7 6 6 6 6 6 5 5 5 5 4 4 4 4 5 5 5 5 5 5 5 4 4 4 4 4 4 3 3 3 3 3 2 2 2
11 11 11 11 11 11 11 11 11 11 11 11 11 10 10 10 10 10 10 9 9 9 9 9 9 9 8 8 8 8 7 7 7 7 6 6 6 6 6 5 5 5 5 4 4 4 4 5 5 5 5 5 5 4 4 4 4 4 4 3 3 3 3 3 3 2 2 2 2
11 11 11 11 11 11 11 11 11 11 11 11 11 10 10 10 10 10 9 9 9 9 9 9 9 8 8 8 7 7 7 7 7 6 6 6 6 6 5 5 5 5 5 4 4 4 5 5 5 5 5 4 4 4 4 4 4 4 3 3 3 3 3 3 2 2 2 2 2
11 11 11 11 11 11 11 11 11 11 11 10 10 10 10 10 10 9 9 9 9 9 8 8 8 8 7 7 7 7 7 7 6 6 6 6 6 5 5 5 5 5 5 4 4 5 5 5 5 4 4 4 4 4 4 4 3 3 3 3 3 3 3 3 2 2 2 2 2
Height
1463 1464 1465 1467 1468 1469 1470 1471 1472 1473 1474 1475 1476 1477 1479 1480 1481 1482 1483 1484 1485 1485 1486 1487 1487 1488 1489 1490 1491 1492 1493 1495 1496 1497 1497 1499 1500 1501 1502 1502 1503 1504 1505 1506 1506 1507 1507 1508 1508 1508 1508 1510 1511 1511 1511 1511 1512 1512 1512 1512 1513 1513 1514 1514 1514 1514 1514 1514 1514
1461 1462 1464 1465 1467 1468 1468 1469 1470 1472 1473 1474 1475 1476 1477 1479 1480 1481 1482 1483 1483 1484 1485 1486 1487 1487 1488 1489 1490 1492 1492 1493 1495 1496 1497 1497 1498 1499 1500 1501 1502 1502 1503 1504 1505 1505 1506 1506 1506 1507 1507 1509 1509 1509 1509 1509 1510 1510 1511 1511 1511 1511 1512 1512 1512 1512 1512 1513 1513
1460 1461 1462 1464 1465 1466 1467 1468 1469 1470 1472 1473 1474 1475 1476 1478 1479 1480 1481 1482 1483 1483 1484 1485 1486 1487 1487 1488 1489 1490 1492 1492 1493 1494 1495 1496 1497 1498 1498 1499 1500 1501 1502 1502 1503 1503 1504 1505 1505 1506 1507 1507 1507 1508 1508 1508 1508 1509 1509 1510 1510 1510 1510 1510 1510 1511 1511 1511 1511
1459 1460 1461 1462 1463 1464 1465 1466 1467 1469 1470 1472 1473 1474 1475 1477 1478 1479 1480 1481 1482 1482 1483 1484 1485 1486 1486 1487 1488 1489 1490 1491 1492 1493 1494 1495 1496 1496 1497 1497 1498 1499 1500 1501 1502 1502 1502 1503 1503 1504 1505 1505 1506 1507 1507 1507 1508 1508 1508 1508 1508 1508 1509 1509 1510 1510 1509 1509 1509
1458 1459 1460 1461 1462 1463 1464 1465 1467 1468 1469 1471 1472 1473 1474 1476 1477 1478 1479 1480 1481 1482 1482 1483 1484 1485 1485 1487 1487 1488 1489 1490 1491 1492 1493 1494 1494 1495 1496 1496 1497 1498 1499 1500 1500 1501 1501 1502 1502 1503 1503 1504 1504 1505 1505 1506 1506 1506 1507 1507 1507 1507 1507 1508 1508 1507 1507 1507 1507
1456 1457 1459 1460 1461 1462 1463 1464 1466 1467 1468 1469 1471 1472 1473 1474 1476 1477 1478 1479 1480 1481 1481 1482 1483 1483 1485 1486 1486 1487 1488 1489 1490 1491 1492 1492 1493 1494 1495 1496 1497 1497 1498 1498 1499 1499 1500 1500 1501 1501 1502 1502 1502 1503 1503 1503 1504 1504 1505 1505 1505 1506 1506 1506 1506 1506 1506 1506 1506
1455 1457 1458 1459 1460 1461 1462 1463 1465 1466 1467 1468 1470 1471 1472 1473 1475 1476 1477 1478 1479 1479 1480 1481 1482 1483 1484 1485 1485 1486 1487 1488 1489 1490 1491 1491 1492 1493 1494 1495 1495 1496 1497 1497 1498 1498 1498 1499 1499 1500 1500 1500 1501 1501 1502 1502 1502 1503 1503 1503 1503 1504 1504 1504 1504 1504 1504 1504 1504
1454 1456 1457 1458 1459 1460 1461 1462 1464 1465 1466 1467 1469 1470 1471 1472 1474 1475 1476 1477 1477 1478 1479 1480 1481 1482 1483 1484 1484 1485 1486 1487 1488 1489 1490 1491 1491 1492 1493 1494 1494 1495 1496 1496 1497 1497 1497 1498 1498 1498 1499 1499 1500 1500 1500 1501 1501 1501 1501 1501 1502 1502 1502 1502 1502 1502 1502 1502 1502
1453 1455 1456 1457 1457 1459 1460 1461 1462 1464 1465 1467 1468 1469 1471 1472 1473 1474 1475 1476 1476 1477 1478 1479 1480 1481 1482 1483 1484 1485 1486 1487 1487 1488 1489 1490 1491 1492 1492 1493 1493 1494 1494 1495 1496 1496 1497 1497 1497 1497 1498 1498 1499 1499 1499 1499 1499 1499 1499 1500 1500 1500 1500 1500 1500 1500 1500 1500 1500
1452 1453 1454 1456 1457 1458 1459 1460 1462 1463 1465 1466 1467 1469 1470 1471 1472 1473 1474 1474 1475 1477 1477 1478 1479 1480 1481 1482 1483 1484 1485 1486 1486 1487 1488 1489 1490 1490 1491 1492 1492 1492 1493 1494 1494 1495 1495 1496 1496 1496 1497 1497 1497 1498 1498 1498 1498 1498 1498 1498 1498 1498 1498 1498 1498 1498 1498 1498 1498
1450 1452 1453 1454 1455 1457 1458 1460 1461 1462 1464 1465 1467 1468 1469 1470 1471 1472 1473 1473 1475 1476 1477 1478 1479 1480 1481 1482 1482 1483 1484 1485 1486 1486 1487 1488 1489 1489 1490 1491 1491 1492 1492 1493 1493 1494 1494 1494 1495 1495 1496 1496 1496 1496 1496 1497 1497 1497 1497 1497 1497 1497 1497 1497 1497 1497 1497 1497 1497
1449 1451 1452 1453 1454 1456 1457 1459 1460 1462 1463 1465 1466 1467 1468 1469 1470 1471 1472 1473 1474 1475 1476 1477 1478 1479 1480 1481 1482 1482 1483 1484 1485 1486 1486 1487 1487 1488 1489 1490 1491 1491 1492 1492 1492 1493 1493 1493 1494 1494 1494 1494 1495 1495 1495 1496 1496 1496 1496 1496 1496 1496 1496 1496 1496 1496 1496 1496 1496
1448 1450 1451 1452 1453 1455 1456 1458 1459 1461 1462 1464 1465 1467 1467 1468 1469 1470 1471 1472 1473 1474 1475 1476 1477 1478 1479 1480 1481 1482 1482 1483 1484 1484 1485 1486 1487 1487 1488 1489 1490 1491 1491 1491 1492 1492 1492 1492 1493 1493 1493 1494 1494 1494 1494 1495 1495 1495 1495 1495 1495 1495 1495 1495 1495 1495 1495 1495 1494
1447 1448 1450 1451 1452 1454 1456 1457 1458 1460 1462 1463 1464 1466 1467 1467 1468 1469 1470 1471 1472 1473 1474 1475 1477 1477 1478 1479 1480 1481 1481 1482 1483 1483 1484 1485 1486 1487 1487 1488 1489 1489 1490 1490 1491 1491 1492 1492 1492 1492 1493 1493 1493 1493 1493 1494 1494 1494 1494 1494 1494 1494 1494 1494 1494 1494 1494 1493 1493
1446 1447 1449 1450 1452 1453 1455 1456 1458 1459 1461 1462 1464 1465 1465 1466 1467 1468 1469 1470 1471 1472 1473 1474 1476 1477 1477 1478 1479 1480 1481 1481 1482 1483 1484 1484 1485 1486 1486 1487 1487 1488 1489 1489 1490 1490 1491 1491 1492 1492 1492 1492 1492 1492 1492 1493 1493 1493 1493 1493 1493 1493 1493 1493 1492 1492 1492 1492 1492
1445 1446 1448 1449 1451 1452 1454 1455 1457 1459 1460 1462 1463 1463 1464 1465 1466 1467 1468 1469 1470 1472 1472 1474 1475 1476 1477 1477 1478 1479 1480 1481 1481 1482 1483 1483 1484 1485 1486 1486 1487 1487 1488 1489 1489 1489 1490 1490 1490 1491 1491 1491 1491 1491 1492 1492 1492 1492 1492 1492 1492 1492 1492 1492 1492 1491 1491 1491 1491
1444 1445 1447 1448 1450 1451 1453 1455 1456 1458 1459 1461 1461 1462 1463 1464 1465 1466 1467 1468 1470 1471 1472 1473 1474 1475 1476 1477 1477 1478 1479 1480 1481 1481 1482 1483 1484 1484 1485 1486 1486 1487 1487 1488 1488 1488 1489 1489 1489 1490 1490 1490 1490 1491 1491 1491 1492 1492 1492 1492 1492 1492 1491 1491 1491 1490 1490 1490 1489
1443 1444 1446 1447 1449 1451 1452 1454 1456 1457 1459 1460 1460 1461 1462 1463 1464 1465 1467 1468 1469 1471 1472 1472 1473 1474 1475 1476 1477 1477 1478 1479 1480 1481 1482 1482 1483 1484 1484 1485 1485 1486 1487 1487 1487 1487 1488 1488 1488 1489 1489 1489 1490 1490 1490 1491 1491 1491 1491 1491 1491 1491 1490 1490 1490 1489 1489 1488 1488
1442 1443 1445 1447 1448 1450 1452 1453 1455 1457 1458 1459 1459 1460 1461 1462 1463 1465 1466 1467 1469 1470 1471 1472 1473 1474 1474 1475 1476 1477 1478 1479 1480 1480 1481 1482 1482 1483 1483 1484 1484 1485 1486 1486 1487 1487 1487 1487 1488 1488 1488 1489 1489 1489 1490 1490 1490 1490 1490 1490 1490 1490 1489 1489 1488 1488 1487 1487 1487
1441 1442 1444 1446 1447 1449 1451 1453 1454 1456 1457 1458 1458 1459 1460 1461 1463 1465 1466 1467 1468 1469 1470 1472 1472 1473 1474 1475 1476 1477 1477 1478 1479 1480 1480 1481 1482 1482 1482 1483 1484 1484 1485 1485 1486 1486 1487 1487 1487 1487 1488 1488 1488 1489 1489 1489 1489 1489 1489 1489 1489 1489 1488 1488 1487 1487 1487 1486 1486
1440 1442 1443 1445 1447 1448 1450 1452 1453 1455 1456 1457 1458 1458 1459 1461 1462 1464 1466 1467 1468 1469 1470 1471 1472 1472 1473 1474 1475 1476 1477 1477 1478 1479 1479 1480 1481 1481 1482 1482 1483 1484 1484 1485 1485 1485 1486 1486 1487 1487 1487 1487 1488 1488 1488 1488 1489 1489 1488 1488 1488 1488 1487 1487 1486 1486 1486 1485 1485
1440 1441 1443 1445 1446 1448 1450 1451 1453 1454 1456 1457 1457 1457 1458 1460 1462 1464 1465 1466 1467 1468 1469 1470 1471 1472 1473 1474 1474 1475 1476 1477 1477 1478 1479 1479 1480 1481 1482 1482 1483 1483 1484 1484 1484 1485 1485 1486 1486 1487 1487 1487 1487 1488 1488 1488 1488 1488 1487 1487 1487 1487 1486 1486 1486 1485 1485 1484 1484
1439 1441 1442 1444 1446 1447 1449 1451 1452 1453 1455 1456 1456 1457 1458 1460 1462 1463 1464 1466 1467 1467 1468 1469 1470 1471 1472 1473 1474 1474 1475 1476 1477 1477 1478 1479 1480 1480 1481 1482 1482 1483 1483 1483 1484 1484 1485 1486 1486 1486 1487 1487 1487 1487 1487 1487 1487 1487 1487 1486 1486 1486 1485 1485 1485 1484 1484 1483 1483
1438 1440 1442 1443 1445 1447 1449 1450 1451 1452 1453 1454 1454 1456 1457 1459 1461 1462 1463 1465 1466 1467 1467 1468 1469 1470 1471 1472 1473 1474 1474 1475 1476 1477 1478 1478 1479 1480 1481 1481 1482 1482 1482 1483 1484 1484 1485 1485 1486 1486 1486 1487 1487 1487 1486 1486 1486 1486 1486 1485 1485 1485 1484 1484 1484 1483 1483 1483 1482
1437 1439 1441 1443 1445 1446 1448 1449 1450 1451 1452 1452 1453 1455 1457 1458 1460 1461 1462 1464 1465 1466 1467 1467 1468 1469 1470 1471 1472 1473 1474 1475 1476 1476 1477 1478 1478 1479 1480 1481 1481 1482 1482 1483 1484 1484 1485 1485 1486 1486 1486 1486 1486 1486 1485 1485 1485 1485 1485 1484 1484 1484 1484 1483 1483 1482 1482 1482 1482
1437 1439 1441 1442 1444 1445 1446 1447 1448 1450 1450 1451 1453 1455 1456 1457 1459 1461 1462 1463 1464 1465 1466 1467 1468 1469 1470 1471 1472 1472 1473 1474 1475 1476 1477 1477 1478 1479 1479 1480 1481 1482 1482 1483 1484 1484 1485 1485 1485 1485 1485 1485 1485 1485 1485 1484 1484 1484 1484 1483 1483 1483 1483 1482 1482 1482 1481 1481 1480
1436 1438 1440 1441 1442 1443 1445 1446 1447 1448 1449 1451 1453 1454 1456 1457 1458 1460 1461 1462 1463 1464 1465 1467 1468 1469 1470 1471 1472 1472 1473 1473 1474 1475 1476 1477 1478 1478 1479 1480 1481 1482 1482 1483 1483 1484 1484 1484 1484 1484 1484 1484 1484 1484 1484 1483 1483 1483 1483 1483 1482 1482 1482 1482 1481 1481 1480 1480 1479
1435 1437 1438 1439 1441 1442 1443 1445 1446 1447 1449 1451 1452 1454 1455 1456 1457 1459 1460 1461 1462 1464 1465 1466 1467 1468 1469 1470 1471 1472 1472 1473 1474 1475 1476 1477 1477 1478 1479 1480 1481 1481 1482 1482 1483 1483 1483 1483 1483 1484 1484 1484 1483 1483 1483 1482 1482 1482 1482 1482 1482 1482 1481 1481 1480 1480 1479 1479 1479
1433 1435 1437 1438 1439 1441 1442 1443 1445 1447 1449 1450 1452 1453 1454 1456 1457 1458 1459 1461 1462 1464 1465 1466 1467 1468 1469 1470 1471 1471 1472 1473 1474 1475 1475 1476 1477 1477 1478 1479 1480 1481 1481 1482 1482 1482 1482 1483 1483 1483 1483 1483 1482 1482 1482 1481 1481 1481 1481 1481 1481 1481 1480 1480 1479 1479 1479 1479 1478
1432 1434 1435 1437 1438 1440 1441 1443 1445 1447 1448 1449 1451 1452 1453 1455 1457 1458 1459 1461 1462 1463 1464 1465 1467 1468 1469 1469 1470 1471 1472 1472 1473 1474 1475 1476 1477 1477 1478 1479 1480 1480 1481 1481 1482 1482 1482 1482 1482 1482 1482 1482 1481 1481 1481 1481 1480 1480 1480 1480 1480 1480 1479 1479 1479 1478 1478 1478 1478
1432 1433 1434 1436 1437 1439 1441 1443 1444 1446 1447 1449 1450 1452 1453 1455 1456 1457 1459 1460 1462 1463 1464 1465 1467 1467 1468 1469 1470 1470 1471 1472 1473 1474 1475 1476 1477 1478 1478 1479 1480 1480 1481 1481 1481 1481 1481 1482 1482 1481 1481 1481 1481 1480 1480 1480 1480 1480 1480 1479 1479 1479 1479 1478 1478 1478 1478 1478 1478
1431 1433 1434 1436 1437 1439 1441 1442 1444 1446 1447 1449 1450 1452 1453 1454 1456 1457 1459 1460 1462 1463 1464 1465 1466 1467 1468 1469 1469 1470 1471 1472 1473 1474 1475 1476 1477 1478 1478 1479 1479 1480 1480 1480 1480 1480 1480 1481 1481 1481 1480 1480 1480 1480 1479 1479 1479 1479 1479 1479 1479 1478 1478 1478 1478 1478 1478 1478 1478
1431 1432 1434 1436 1437 1439 1441 1442 1444 1445 1447 1448 1450 1452 1453 1454 1456 1457 1459 1460 1462 1463 1464 1465 1466 1467 1467 1468 1469 1470 1471 1472 1474 1475 1476 1477 1477 1477 1478 1478 1478 1479 1479 1479 1479 1479 1479 1480 1480 1480 1480 1480 1479 1479 1479 1479 1479 1478 1478 1478 1478 1478 1478 1478 1478 1478 1478 1478 1478
1431 1432 1434 1436 1437 1439 1441 1442 1444 1445 1447 1449 1450 1452 1453 1455 1456 1457 1459 1460 1461 1462 1464 1465 1466 1466 1467 1468 1469 1470 1471 1472 1474 1475 1476 1476 1477 1477 1477 1477 1478 1478 1478 1478 1478 1478 1478 1479 1479 1479 1479 1479 1479 1479 1478 1478 1478 1478 1478 1478 1478 1478 1478 1478 1478 1478 1478 1478 1478
1431 1432 1434 1436 1437 1439 1441 1442 1444 1446 1447 1449 1451 1452 1454 1455 1456 1457 1458 1460 1461 1462 1463 1464 1465 1466 1467 1468 1469 1470 1471 1472 1473 1474 1475 1475 1476 1476 1476 1477 1477 1477 1477 1477 1477 1478 1478 1478 1478 1478 1478 1478 1478 1478 1478 1478 1478 1478 1478 1478 1478 1478 1478 1478 1478 1478 1478 1478 1478
1431 1432 1434 1436 1437 1439 1441 1442 1444 1446 1447 1449 1451 1452 1453 1455 1456 1457 1458 1460 1461 1462 1463 1464 1465 1466 1467 1468 1469 1470 1471 1472 1473 1474 1474 1475 1475 1475 1476 1476 1477 1477 1477 1477 1477 1477 1477 1477 1477 1478 1478 1478 1478 1478 1477 1477 1477 1477 1477 1477 1477 1478 1478 1478 1478 1478 1478 1478 1479
1431 1433 1434 1436 1438 1439 1441 1443 1444 1446 1447 1449 1451 1452 1453 1454 1456 1457 1458 1459 1461 1462 1462 1464 1465 1466 1467 1468 1469 1470 1471 1472 1472 1473 1473 1474 1474 1475 1475 1476 1476 1476 1476 1476 1477 1477 1477 1477 1477 1477 1477 1477 1477 1477 1477 1477 1477 1477 1477 1477 1477 1478 1478 1478 1478 1478 1478 1479 1479
1432 1433 1435 1436 1438 1440 1441 1443 1445 1446 1447 1449 1450 1452 1453 1454 1456 1457 1458 1459 1460 1461 1462 1463 1465 1466 1467 1468 1469 1470 1471 1471 1472 1472 1473 1473 1474 1474 1475 1475 1475 1475 1476 1476 1476 1476 1476 1477 1477 1477 1477 1477 1477 1477 1477 1477 1477 1477 1477 1477 1477 1478 1478 1478 1478 1478 1479 1479 1479
1432 1433 1435 1437 1438 1440 1442 1443 1444 1446 1447 1449 1450 1451 1453 1454 1455 1456 1457 1459 1460 1461 1462 1463 1465 1466 1467 1468 1469 1469 1470 1471 1471 1472 1472 1473 1473 1473 1474 1474 1474 1475 1475 1475 1476 1476 1476 1476 1476 1477 1477 1477 1477 1477 1477 1477 1477 1477 1477 1477 1477 1478 1478 1478 1478 1478 1478 1479 1479
1432 1434 1436 1437 1439 1440 1441 1443 1444 1446 1447 1448 1450 1451 1452 1453 1455 1456 1457 1458 1459 1461 1462 1463 1465 1466 1467 1467 1468 1469 1469 1470 1471 1471 1472 1472 1472 1473 1473 1474 1474 1474 1475 1475 1475 1476 1476 1476 1476 1476 1477 1477 1477 1477 1477 1477 1477 1477 1477 1477 1478 1478 1478 1478 1478 1478 1478 1478 1478
1432 1434 1436 1437 1439 1440 1441 1442 1444 1445 1447 1448 1449 1451 1452 1453 1454 1456 1457 1458 1459 1461 1462 1463 1464 1465 1466 1467 1467 1468 1469 1469 1470 1471 1471 1472 1472 1472 1473 1473 1474 1474 1474 1475 1475 1475 1476 1476 1476 1476 1477 1477 1477 1477 1477 1477 1477 1477 1477 1478 1478 1478 1478 1478 1478 1478 1478 1478 1478
Wind_Speed
28 28 28 28 27 27 28 28 28 27 26 25 25 24 23 22 22 21 21 21 19 18 17 16 17 18 19 20 21 22 22 24 25 26 28 29 30 30 30 30 30 30 30 30 29 29 28 29 30 30 29 27 27 28 29 30 29 29 29 30 30 31 31 31 32 32 31 31 30
28 28 28 27 27 28 28 28 28 27 26 25 24 24 23 22 22 21 21 20 18 16 15 15 15 16 17 18 19 19 20 21 22 23 24 26 27 28 29 30 30 31 31 30 30 30 30 30 31 30 29 28 29 31 32 32 31 31 30 31 32 32 33 33 32 31 30 29 29
27 27 27 27 27 28 28 28 27 27 26 25 24 23 23 22 21 21 20 19 17 15 14 13 13 14 15 15 16 16 17 18 19 20 21 22 24 25 27 29 30 31 31 31 32 32 32 32 32 32 31 32 33 34 34 33 32 31 31 32 32 32 31 30 29 28 28 29 29
27 26 27 27 27 27 28 28 27 26 26 25 24 23 22 21 21 20 19 18 16 14 13 12 13 13 14 13 13 14 15 15 16 17 18 20 21 23 25 26 27 28 29 30 30 31 32 32 32 32 33 33 34 33 32 30 29 29 30 31 31 30 28 27 28 29 30 30 29
26 26 26 26 26 27 27 27 26 26 25 25 24 22 22 21 20 19 18 17 15 14 13 13 13 13 13 13 12 13 13 14 14 15 16 17 18 19 21 21 22 23 24 25 26 27 27 28 27 26 26 26 25 24 24 25 26 27 29 29 29 29 28 28 29 29 29 28 28
26 26 26 26 26 26 26 26 25 25 25 24 23 22 21 21 20 19 18 16 15 14 14 14 14 13 13 13 13 13 14 14 14 14 14 14 15 16 16 17 17 18 19 20 20 21 20 19 18 17 16 16 15 17 19 21 23 24 26 26 27 27 26 26 26 26 25 25 26
26 26 25 25 25 25 25 25 25 25 24 23 22 21 20 20 18 17 16 15 14 14 14 14 13 12 12 13 14 14 15 15 15 15 14 14 14 14 14 15 15 16 17 17 17 16 14 14 13 12 11 12 13 15 17 19 20 21 21 22 23 23 23 22 22 22 23 23 25
26 25 25 25 25 25 25 25 24 24 23 22 21 20 19 17 16 15 14 14 15 14 14 13 12 12 12 13 14 15 15 16 15 15 15 14 14 14 14 15 15 16 17 16 14 13 12 12 11 10 11 11 13 14 16 17 16 15 16 17 19 20 21 21 21 22 22 23 23
26 25 25 25 25 25 24 24 24 23 22 21 19 18 16 15 14 13 14 15 15 14 13 13 12 13 13 14 15 15 16 15 15 15 15 15 14 14 13 14 14 15 15 14 13 12 12 12 11 11 12 13 14 15 15 14 13 13 14 16 17 19 21 21 22 22 22 21 21
26 26 25 25 25 25 24 23 23 22 20 18 17 16 15 14 13 14 15 15 14 14 14 14 14 14 15 15 15 15 15 15 15 15 15 15 14 13 13 12 12 12 13 13 13 13 13 13 12 13 14 15 16 16 16 15 14 14 16 17 19 21 22 22 22 22 22 22 22
27 27 26 25 25 25 24 23 22 20 18 17 16 15 15 14 14 15 15 15 14 14 15 15 15 15 16 16 16 16 16 16 15 15 15 14 14 14 14 13 12 12 13 14 15 15 15 15 15 16 17 18 18 17 16 15 15 16 17 19 21 21 22 23 24 24 24 24 24
27 27 26 26 25 25 24 22 21 19 17 16 16 15 15 15 16 16 15 14 14 14 15 15 15 16 16 17 17 16 16 16 16 16 16 15 15 15 15 15 14 14 15 16 17 18 18 18 19 20 20 21 20 18 17 17 17 18 19 20 21 21 22 22 23 24 25 25 25
28 27 27 26 25 24 23 22 20 19 18 17 16 15 16 16 16 15 15 14 15 15 15 15 16 16 16 17 16 16 16 16 16 16 16 16 15 16 16 17 16 16 16 16 17 17 18 19 20 21 22 22 21 20 19 19 20 20 20 21 21 21 21 21 21 21 22 23 24
28 28 27 26 25 24 23 22 20 19 18 17 17 16 17 17 16 15 15 15 16 16 16 17 17 17 17 16 16 15 15 15 15 15 15 15 15 16 17 18 17 17 16 15 15 15 16 17 19 20 21 21 21 21 21 21 22 22 21 21 21 20 20 19 19 18 19 20 21
27 27 27 26 25 24 23 22 20 19 18 18 17 18 18 17 16 16 16 17 18 18 18 18 18 18 17 16 15 15 14 15 15 15 15 15 16 16 17 17 16 16 15 14 14 14 15 16 17 18 19 20 20 21 21 21 21 21 21 21 20 20 19 19 18 17 17 18 19
26 26 26 26 25 24 23 21 20 19 19 18 19 19 19 18 17 17 18 19 19 19 19 19 19 18 17 16 15 15 15 15 15 15 16 16 16 15 15 15 15 14 14 13 14 14 15 16 17 18 18 19 20 20 20 20 20 20 20 20 20 19 19 19 19 18 18 18 19
25 26 26 25 25 24 22 21 19 19 19 19 20 20 19 18 18 19 20 20 20 20 20 19 19 18 16 15 15 15 15 16 16 16 16 15 14 14 13 13 14 14 14 15 15 16 17 17 17 18 18 19 19 20 19 19 19 19 20 20 20 20 20 21 21 22 22 22 21
25 25 25 24 24 23 22 21 20 19 19 18 19 20 19 19 20 20 20 21 21 21 20 20 19 17 16 15 14 15 15 16 16 16 15 14 13 13 13 14 14 15 16 16 17 18 18 18 18 18 19 19 19 19 19 19 19 20 20 20 21 21 22 23 23 24 24 24 24
25 25 25 24 23 23 22 21 20 20 19 18 19 20 20 21 21 20 20 20 21 21 21 20 18 17 16 15 14 15 16 16 16 16 15 14 14 14 14 15 15 16 16 17 17 18 18 18 18 19 19 19 19 19 19 19 19 20 20 21 21 22 22 23 23 24 24 25 25
25 25 25 24 23 23 22 21 20 20 19 19 19 20 21 22 21 20 20 20 20 21 20 20 18 16 15 15 15 15 16 16 17 16 16 15 15 16 16 16 15 15 16 16 16 17 17 17 18 18 18 18 18 18 18 19 19 20 20 20 20 20 20 21 21 22 22 23 23
24 24 24 24 24 23 22 21 21 20 19 18 19 20 22 22 21 20 20 20 20 20 20 19 18 17 16 16 16 16 15 16 16 16 16 17 17 17 16 16 15 15 16 16 16 16 16 16 17 17 17 17 17 18 19 19 19 18 17 18 18 18 19 19 20 20 21 21 21
24 24 24 24 24 23 22 21 21 20 19 18 18 20 21 21 21 21 21 20 20 20 19 19 18 18 18 18 17 16 15 15 15 16 16 17 17 17 17 16 16 17 17 17 17 17 16 16 16 16 17 17 18 18 18 17 16 15 16 17 18 18 18 18 18 19 19 19 19
24 24 24 24 24 23 22 21 20 20 19 19 20 21 21 21 22 22 22 21 20 20 20 19 19 20 20 19 18 16 15 15 15 15 16 16 16 16 16 16 17 18 18 18 18 17 17 16 16 17 18 18 17 16 15 14 14 15 17 18 19 18 18 17 17 18 18 17 17
25 24 24 23 23 22 21 21 21 21 21 20 21 22 22 22 23 24 23 22 21 20 20 20 20 20 20 19 18 17 16 16 16 15 15 15 15 15 15 16 17 18 18 18 17 16 16 16 16 17 17 16 14 14 14 15 16 18 18 18 18 18 17 17 16 16 16 16 16
24 24 23 23 23 23 22 22 23 22 22 23 23 23 23 24 25 24 24 22 22 21 21 21 20 20 19 18 18 18 17 17 16 16 15 15 15 15 15 16 16 16 16 15 15 15 15 15 15 15 14 13 13 14 16 18 19 19 18 18 17 16 16 16 16 15 15 16 16
24 24 24 23 24 24 24 24 24 24 25 25 24 24 24 25 25 25 24 23 23 23 22 21 20 19 18 18 18 18 18 17 17 17 16 15 15 15 16 16 16 15 14 14 14 14 14 14 13 13 12 13 15 17 18 19 19 18 17 16 15 15 15 15 15 15 16 16 16
26 25 25 24 25 25 25 26 26 26 26 25 25 25 26 26 25 25 25 25 24 23 21 20 19 18 18 18 18 18 18 18 18 17 16 16 16 16 16 16 15 14 14 14 14 14 13 12 12 12 14 15 17 18 18 18 18 16 15 14 14 14 14 14 15 15 16 16 16
28 27 27 26 27 27 27 27 27 27 27 26 26 26 27 27 26 26 26 25 24 23 21 20 19 19 18 18 18 18 18 18 17 16 16 16 16 16 16 15 14 14 13 13 12 12 11 12 13 14 16 17 17 17 17 17 16 14 13 12 12 13 13 13 14 15 15 16 16
30 29 29 28 29 29 28 28 28 28 27 27 27 27 28 27 27 26 26 25 24 23 22 21 20 19 18 18 18 18 18 17 16 16 16 16 16 15 15 14 13 13 12 12 12 12 13 13 14 15 16 16 16 15 14 13 12 11 11 11 11 12 13 13 14 14 14 15 15
30 30 30 30 30 30 29 29 29 29 28 29 28 28 28 28 27 26 25 25 24 23 22 21 20 19 19 18 18 18 17 17 16 16 16 15 15 14 14 14 13 13 12 12 12 13 13 14 14 14 13 13 13 12 11 10 9 9 9 10 11 12 12 13 13 13 13 13 13
29 29 30 30 30 30 30 29 29 29 30 30 29 29 29 28 27 26 25 24 24 23 22 21 20 19 19 19 19 18 17 16 16 16 15 14 13 13 13 13 13 12 12 12 12 13 13 12 11 11 11 10 10 10 9 8 7 8 9 10 11 11 12 12 12 12 11 11 10
29 29 29 29 30 30 30 30 30 30 30 30 29 29 29 28 27 25 24 23 23 22 21 20 19 19 19 19 18 17 16 16 15 14 13 13 12 12 13 13 12 11 11 12 12 13 12 11 11 10 10 10 9 9 8 7 7 8 9 10 10 11 11 11 11 10 10 10 9
28 29 29 29 30 30 30 30 30 30 30 30 29 28 28 27 26 25 24 22 22 21 20 19 19 19 19 18 17 16 15 15 14 13 13 12 12 12 12 11 10 10 10 11 11 11 11 10 10 10 10 9 8 7 7 6 7 8 8 9 9 10 9 9 9 9 9 9 9
29 29 30 30 30 31 31 30 30 30 29 29 28 27 26 25 25 24 23 22 21 20 19 19 19 18 18 17 16 15 14 13 12 12 11 11 10 9 8 8 8 9 9 9 9 9 8 7 7 8 8 8 7 6 6 6 7 7 8 8 8 8 8 8 8 8 8 8 8
29 30 30 30 31 31 31 30 30 29 28 27 27 25 25 24 23 23 22 21 20 19 19 19 18 18 17 16 14 13 12 11 10 9 8 8 7 6 6 6 7 7 7 6 6 5 5 5 5 6 6 5 5 5 5 6 6 7 7 7 7 7 7 7 7 7 7 7 8
29 30 30 30 31 30 30 30 29 28 27 26 25 24 23 23 22 21 20 19 18 18 18 18 17 16 15 14 13 12 11 9 8 7 7 6 6 6 5 5 4 4 4 4 3 3 3 3 3 3 3 3 4 4 5 5 6 6 6 6 6 6 6 6 6 7 7 8 9
29 29 30 30 30 30 29 28 27 26 25 24 23 22 22 21 20 19 18 18 18 18 17 17 16 15 14 13 11 10 9 7 7 6 6 6 6 5 4 3 2 2 1 1 1 1 1 1 2 2 2 3 3 4 4 5 5 6 6 6 6 6 6 6 7 7 8 9 9
28 28 29 29 29 29 28 27 26 25 24 22 21 21 20 19 19 18 17 17 17 17 16 15 14 13 12 10 9 8 7 6 6 6 6 6 5 4 3 2 2 2 2 1 1 1 1 0 0 1 2 3 3 4 4 5 5 5 5 5 6 6 6 6 7 8 8 9 10
28 28 28 28 28 27 27 26 25 23 22 21 20 19 19 18 18 17 17 16 16 15 15 13 12 11 9 8 7 7 6 6 6 6 5 5 4 4 4 4 4 4 4 3 3 2 2 1 0 1 2 3 3 4 4 5 5 5 5 5 5 6 6 6 7 8 8 9 9
28 27 27 26 26 26 25 25 24 22 21 20 19 19 18 18 17 16 16 15 14 13 12 11 10 9 8 7 7 7 7 7 7 6 6 5 5 5 6 6 6 6 5 4 4 3 2 1 1 1 2 2 3 3 4 4 4 4 5 5 5 5 6 6 7 7 7 7 8
27 27 26 26 25 25 24 24 23 21 20 20 19 18 18 17 16 15 15 14 13 12 11 10 9 9 8 8 8 8 8 7 7 7 7 7 7 7 7 8 7 7 6 5 4 3 3 2 2 2 2 2 2 3 3 3 3 3 3 4 4 4 5 5 6 6 6 6 7
Wind_Direction
206 207 206 205 204 206 209 212 213 214 215 216 215 215 215 214 212 215 219 224 225 224 224 222 220 218 217 216 217 219 220 222 224 226 228 230 231 232 233 234 234 235 235 236 238 240 241 242 241 241 240 239 239 241 243 244 246 247 248 248 249 250 251 252 253 256 259 262 266
204 206 206 205 204 206 209 212 213 214 215 216 216 217 216 214 213 215 220 224 225 224 222 220 218 217 216 216 216 218 220 222 224 226 228 229 231 232 232 233 233 234 235 236 237 239 240 241 242 243 243 241 241 241 243 245 248 250 251 252 253 254 255 256 258 261 264 266 269
202 204 205 205 204 206 209 211 213 213 213 214 216 216 216 214 213 214 219 224 223 221 219 218 216 215 214 213 213 216 219 221 223 225 227 228 229 230 231 233 234 235 236 237 239 240 241 242 243 244 245 245 246 247 250 253 255 257 258 259 261 262 264 264 265 265 265 265 266
200 202 204 204 205 207 209 211 211 212 212 213 213 213 213 213 212 214 217 221 221 220 218 215 213 211 208 206 207 211 215 218 221 224 226 227 228 230 232 234 236 238 239 241 242 244 245 246 247 249 250 251 253 254 256 258 259 261 262 265 267 269 270 270 268 267 266 266 267
198 200 203 205 205 207 209 210 210 210 211 211 211 210 210 211 211 212 214 217 220 218 214 210 209 206 202 198 199 204 208 212 216 219 222 225 228 230 233 236 238 240 243 245 247 249 250 252 253 254 256 258 259 260 260 260 260 262 264 267 269 270 271 270 270 271 271 272 273
196 198 201 203 204 205 207 208 210 210 211 211 210 209 209 211 212 212 213 215 215 213 210 208 207 203 198 195 195 197 201 204 208 212 216 221 225 228 232 234 236 239 242 245 248 250 252 253 254 256 258 262 265 266 265 263 263 263 264 266 267 269 271 273 274 275 275 275 274
195 196 198 201 202 204 205 207 209 210 211 211 210 210 210 212 212 211 210 209 208 209 209 207 205 201 197 194 194 195 198 200 203 207 210 215 219 224 227 229 230 232 234 237 240 244 247 249 250 251 254 259 263 265 265 263 262 261 261 263 264 267 270 272 273 272 271 270 271
193 194 196 199 201 203 204 206 208 209 210 210 210 210 211 211 209 207 205 205 208 208 205 202 202 200 196 193 193 195 197 199 202 205 208 211 214 218 221 223 224 225 226 228 231 234 238 242 243 245 248 252 256 258 259 258 256 256 257 258 260 260 262 264 265 266 266 267 270
191 192 194 197 200 202 204 207 208 208 208 209 209 208 207 206 203 201 202 206 206 203 198 197 198 200 199 196 195 195 197 199 201 205 207 209 212 215 218 221 221 221 221 222 224 227 232 237 239 241 242 244 246 247 249 249 247 248 250 252 253 254 255 257 259 260 262 265 268
189 190 193 196 199 202 204 207 208 209 208 206 204 202 202 201 199 199 202 204 201 197 196 196 198 200 201 200 199 199 200 202 204 206 208 210 211 214 217 219 222 223 223 223 224 227 230 233 235 238 240 241 241 241 242 242 242 245 248 250 252 254 255 257 259 260 262 263 265
188 189 192 195 198 201 203 205 206 206 205 201 198 196 196 197 197 199 201 199 195 194 195 197 198 201 203 203 202 203 205 206 208 209 210 211 212 213 215 217 220 223 224 225 227 228 230 232 234 237 240 242 243 243 243 244 246 248 251 254 257 259 262 264 266 266 265 264 264
187 188 191 193 197 199 201 202 202 201 198 194 192 191 192 194 197 198 196 192 190 191 194 196 198 200 201 200 201 203 205 208 210 211 212 213 213 215 216 219 223 227 228 228 228 229 230 233 236 240 243 246 248 250 252 254 256 257 258 260 263 265 268 271 272 272 270 268 265
187 188 190 192 195 197 199 199 198 196 193 189 187 187 189 195 196 193 189 186 186 189 192 195 197 198 197 196 198 200 203 206 209 211 214 216 217 219 221 224 227 231 233 233 232 230 231 234 239 243 247 251 254 257 261 263 265 265 266 267 268 270 272 274 276 277 276 274 272
189 189 189 191 194 196 196 196 194 192 189 186 183 184 189 195 192 188 184 184 185 188 191 194 196 197 197 198 198 199 200 202 205 208 212 217 221 223 224 225 227 230 233 236 236 235 235 238 242 246 250 253 256 260 263 266 268 269 270 271 271 273 274 277 280 283 285 285 283
189 189 190 191 193 194 194 193 191 188 186 183 181 186 192 193 188 185 185 186 188 190 193 195 196 197 199 201 201 201 201 201 202 205 209 215 218 220 221 222 225 228 231 235 238 240 240 241 244 247 250 253 256 259 263 266 268 270 271 272 273 275 277 280 284 289 293 294 294
188 189 190 191 192 192 192 190 187 185 184 182 184 189 193 190 187 185 187 189 191 193 194 195 196 198 201 202 203 203 202 202 203 204 207 209 210 210 213 218 224 229 233 237 240 242 244 245 247 249 252 255 259 262 265 267 269 271 272 274 276 279 282 285 288 291 293 294 295
186 188 190 190 191 190 188 186 182 181 181 182 188 191 192 190 188 188 189 191 192 194 195 196 197 199 202 202 202 202 203 203 204 205 205 203 202 203 208 215 224 232 237 240 242 243 245 248 251 254 258 262 265 268 270 271 272 274 276 278 281 285 288 291 292 293 292 291 291
186 187 188 188 188 187 185 183 180 179 180 181 188 190 190 191 190 190 190 191 193 194 196 198 200 201 202 201 200 202 204 205 206 206 206 205 205 207 211 219 227 233 237 239 242 244 247 251 256 261 265 268 271 273 274 275 275 277 279 282 285 289 292 294 294 294 293 291 289
186 187 187 186 185 185 183 181 180 179 180 182 187 189 190 192 191 190 190 191 192 193 196 199 201 203 202 200 201 203 206 208 209 209 210 211 213 215 219 223 228 232 235 238 241 246 250 255 260 264 268 271 273 274 275 276 277 279 282 285 289 293 295 296 296 295 294 293 291
185 186 185 184 184 183 181 178 179 179 180 183 187 190 192 193 191 190 190 190 190 191 194 199 203 204 203 204 204 206 207 209 210 211 213 216 218 220 223 225 228 231 235 239 243 248 252 256 261 264 267 269 272 275 278 281 283 284 287 289 293 295 298 298 298 297 296 295 294
183 183 183 183 182 181 179 178 178 178 177 179 185 190 193 192 190 188 188 189 189 190 193 199 203 205 206 207 207 207 207 207 209 211 215 218 221 223 226 228 230 234 239 243 246 249 252 256 259 262 266 271 277 282 286 288 289 289 290 292 294 296 297 299 299 299 297 296 295
181 181 180 180 180 179 178 178 177 176 176 178 183 189 192 189 187 186 187 189 191 192 194 199 202 206 208 208 208 207 206 207 209 212 215 219 222 226 229 233 236 240 244 246 248 251 253 256 261 266 272 279 284 288 289 289 288 290 291 293 295 296 298 299 300 300 299 297 296
180 179 178 178 177 176 176 176 176 175 175 178 185 189 190 185 184 185 187 189 191 193 195 199 202 205 205 205 204 205 207 210 211 212 215 218 222 227 233 237 241 243 245 247 249 252 256 261 268 275 280 284 286 287 288 290 293 295 297 298 299 299 299 300 301 302 301 300 298
179 177 175 174 173 173 173 175 176 176 177 180 187 189 187 183 184 186 188 189 191 194 197 200 201 201 199 198 200 204 209 213 214 215 217 220 225 231 235 239 241 243 244 247 250 255 261 269 276 281 283 284 285 288 294 299 302 302 302 302 301 301 300 300 300 301 302 301 300
176 174 172 171 170 171 173 175 176 177 179 185 189 188 184 183 184 185 187 188 192 195 198 200 199 196 194 195 199 205 210 215 218 220 223 228 232 236 239 241 241 242 244 249 255 262 270 277 281 282 282 284 290 296 300 302 303 302 302 301 301 301 301 300 300 299 298 296 295
174 171 169 169 171 172 174 176 179 181 185 188 188 186 183 182 183 185 186 189 193 196 198 198 195 193 194 197 202 207 212 216 221 225 229 233 236 240 241 242 244 246 252 259 267 273 277 280 279 278 281 287 293 297 299 299 299 298 298 299 300 301 302 301 299 297 295 293 292
172 169 169 170 172 174 176 179 183 186 188 188 186 184 182 181 183 185 188 191 193 195 195 194 193 194 196 200 205 209 214 218 223 228 232 234 236 238 240 244 249 255 263 271 276 279 279 277 275 276 281 287 291 294 295 295 294 294 294 296 299 300 301 300 299 297 295 294 294
171 170 170 172 174 177 180 183 186 187 187 186 184 183 182 182 184 187 190 192 192 193 193 194 195 198 200 203 207 211 217 221 226 230 233 234 235 237 241 246 254 262 270 275 277 276 274 272 275 280 286 291 294 295 295 293 292 292 293 295 298 299 299 298 298 297 296 296 297
174 174 174 176 178 180 183 185 186 186 185 184 184 183 184 184 186 189 191 192 193 193 194 197 200 202 203 204 209 214 219 224 228 230 231 231 233 238 243 250 257 265 271 274 273 272 273 277 282 288 293 297 299 299 298 296 294 293 294 297 298 299 299 298 298 298 299 300 301
179 179 180 181 182 183 185 185 185 184 183 184 184 185 186 187 188 190 192 193 194 195 197 201 202 203 204 207 212 216 220 224 226 227 227 229 233 240 248 254 260 265 269 273 275 278 283 288 292 296 300 303 304 305 304 302 299 298 298 299 300 300 300 301 301 303 304 304 302
183 184 184 184 185 185 185 184 184 184 184 185 186 187 188 189 189 191 193 195 196 197 200 203 204 205 207 211 215 217 219 222 224 225 226 231 238 246 254 260 265 267 269 272 278 284 291 296 301 305 308 311 311 311 310 307 305 303 303 303 303 304 304 306 308 310 308 304 299
185 186 186 186 185 184 184 183 184 185 186 187 188 189 190 190 191 192 194 196 198 199 201 203 206 208 211 215 217 218 220 222 225 228 233 241 249 256 262 266 269 271 272 275 280 286 291 296 301 305 309 312 314 314 312 310 308 308 307 307 308 309 310 313 314 313 309 302 296
185 185 185 185 184 184 183 184 185 187 188 189 190 191 192 192 193 194 196 198 199 200 202 205 208 211 213 217 220 222 225 228 234 241 249 257 263 268 272 274 276 277 278 280 283 286 289 292 295 299 304 309 312 313 313 312 311 311 311 311 312 314 316 316 315 313 308 302 295
184 184 184 184 184 184 184 185 187 189 190 191 192 193 194 194 194 195 197 199 201 203 205 208 211 213 216 220 224 228 233 240 248 256 264 271 277 280 283 285 284 284 285 286 287 288 289 290 292 295 300 304 308 312 313 314 314 314 315 315 316 317 317 316 313 310 306 301 295
184 184 184 184 184 185 185 187 189 191 192 193 193 194 195 195 196 198 200 203 204 206 208 210 212 214 217 222 227 233 240 249 257 265 274 282 287 290 290 290 288 288 288 291 291 292 291 290 290 292 295 300 308 313 317 318 318 318 318 317 318 317 315 312 309 305 301 297 292
184 185 185 185 185 186 187 188 190 192 193 194 194 195 195 197 199 202 204 205 207 208 208 210 211 213 216 221 227 235 243 250 257 263 270 278 282 284 285 286 286 284 285 289 295 296 294 292 288 289 293 302 313 320 322 323 323 322 320 319 316 313 310 306 302 298 294 292 289
184 185 185 186 186 187 188 190 191 193 194 195 195 195 196 197 199 201 203 205 206 206 208 209 211 214 218 223 228 234 242 249 252 254 258 264 268 270 270 267 258 252 258 271 289 304 293 285 285 290 302 317 324 328 329 329 328 325 323 320 315 310 306 301 297 294 291 289 288
184 185 186 186 187 188 189 190 192 193 193 193 194 194 195 196 197 198 199 201 202 205 207 209 212 216 220 224 228 231 236 239 242 243 246 247 247 244 234 208 170 155 148 139 125 123 132 181 265 308 328 332 333 334 335 335 333 329 326 322 315 308 302 298 295 292 290 289 288
183 184 186 187 188 189 190 191 192 193 193 192 191 192 192 193 194 194 195 197 200 203 206 209 212 214 216 217 218 219 221 224 227 227 226 221 212 198 179 158 142 134 131 128 126 129 134 137 97 3 351 345 342 342 342 341 337 332 327 322 315 306 299 295 292 290 288 288 288
182 183 185 187 188 189 190 191 192 192 191 190 190 189 190 190 191 192 193 195 198 201 203 205 205 204 204 204 205 206 207 207 206 204 197 187 176 164 152 141 135 131 129 130 130 131 129 118 77 32 12 360 354 350 349 345 338 332 326 320 313 306 298 293 290 289 289 290 289
181 183 184 186 187 189 190 191 190 190 189 189 188 188 188 189 190 191 192 193 194 195 195 195 193 192 193 194 195 195 192 189 187 181 173 164 156 148 142 137 134 131 131 132 131 128 117 98 73 47 31 18 9 1 354 348 342 331 324 320 314 307 299 293 291 291 292 293 293